Location: Long Geng
(2.6167°N, 114.1333°E)
Time: 20:26:26
(UTC+00:00)

Ariane H10 - Pass Details

Date: 14 May 2021
Orbit: 429 x 35453 km, 6.7° (Epoch: 16 June)

Event Time Altitude Azimuth Distance (km) Brightness Sun altitude
Exits shadow 20:48:13 58° 269° (W) 671 2.4 -20.7°
Maximum altitude 20:48:52 87° 355° (N) 633 2.5 -20.5°
Drops below altitude 10° 20:56:28 10° 83° (E) 4,132 7.9 -18.8°
Sets 21:03:56 0° 84° (E) 7,542 9.6 -17.0°
